Location: Recife
(8.0585°S, 34.8848°W)
Time: 06:41:01
(UTC-03:00)

Vanguard 1 Rocket - Pass Details

Date: 16 April 2026
Orbit: 655 x 4212 km, 34.3° (Epoch: 13 May)

Event Time Altitude Azimuth Distance (km) Brightness Sun altitude
Rises 05:26:46 0° 319° (NW) 4,994 10.9 0.4°
Reaches altitude 10° 05:31:03 10° 326° (NNW) 3,455 10.2 1.4°
Maximum altitude 05:38:03 35° 30° (NNE) 1,447 9.0 3.1°
Drops below altitude 10° 05:42:38 10° 97° (E) 2,241 11.2 4.2°
Sets 05:44:50 0° 107° (ESE) 3,041 11.4 4.8°
